Location: Unspecified
(49.2170°N, 0.0000°E)
Time: 11:04:18
(UTC+00:00)

S-56A Canister/Altair - Pass Details

Date: 27 June 2021
Orbit: 631 x 2501 km, 38.9° (Epoch: 30 July)

Event Time Altitude Azimuth Distance (km) Brightness Sun altitude
Exits shadow 02:46:36 11° 210° (SSW) 2,146 9.2 -8.9°
Maximum altitude 02:49:46 19° 168° (SSE) 1,566 8.8 -8.5°
Drops below altitude 10° 02:52:56 10° 122° (ESE) 2,012 9.8 -8.2°
Sets 02:55:43 0° 104° (ESE) 2,922 10.9 -7.9°
